Time,TemperatureF,DewpointF,PressureIn,WindDirection,WindDirectionDegrees,WindSpeedMPH,WindSpeedGustMPH,Humidity,HourlyPrecipIn,Conditions,Clouds,dailyrainin,SoftwareType,DateUTC
2013-06-28 00:06:00,67.0,67.0,29.72,SSW,200,3.0,8.0,98,0.00,,,0.00,weatherlink.com 1.10,2013-06-28 04:06:00,
2013-06-28 00:21:00,66.9,66.0,29.71,South,188,3.0,6.0,98,0.00,,,0.00,weatherlink.com 1.10,2013-06-28 04:21:00,
2013-06-28 00:36:00,66.7,66.0,29.70,SSW,197,3.0,5.0,98,0.00,,,0.00,weatherlink.com 1.10,2013-06-28 04:36:00,
2013-06-28 00:51:00,66.7,66.0,29.69,SE,143,3.0,10.0,98,0.00,,,0.00,weatherlink.com 1.10,2013-06-28 04:51:00,
2013-06-28 01:07:00,67.0,67.0,29.69,South,191,3.0,7.0,99,0.02,,,0.02,weatherlink.com 1.10,2013-06-28 05:07:00,
2013-06-28 01:22:00,67.8,68.0,29.68,SSW,193,3.0,10.0,99,0.03,,,0.03,weatherlink.com 1.10,2013-06-28 05:22:00,
2013-06-28 01:37:00,67.5,67.0,29.67,SE,138,4.0,9.0,99,0.04,,,0.04,weatherlink.com 1.10,2013-06-28 05:37:00,
2013-06-28 01:52:00,67.2,67.0,29.66,SSW,198,6.0,11.0,98,0.04,,,0.04,weatherlink.com 1.10,2013-06-28 05:52:00,
2013-06-28 02:07:00,67.7,67.0,29.64,SSW,194,7.0,10.0,99,0.02,,,0.04,weatherlink.com 1.10,2013-06-28 06:07:00,
2013-06-28 02:12:00,-999.0,-99.9,0.00,North,-999,-999.0,-999.0,-999,0.00,,,0.00,weatherlink.com 1.10,2013-06-28 06:12:00,
2013-06-28 02:25:00,67.6,67.0,29.64,SSW,194,7.0,13.0,99,0.00,,,0.00,weatherlink.com 1.10,2013-06-28 06:25:00,
2013-06-28 02:40:00,69.3,69.0,29.64,SSE,163,5.0,13.0,99,0.00,,,0.00,weatherlink.com 1.10,2013-06-28 06:40:00,
2013-06-28 02:55:00,69.1,69.0,29.63,South,170,5.0,12.0,99,0.00,,,0.00,weatherlink.com 1.10,2013-06-28 06:55:00,
2013-06-28 03:10:00,68.8,68.0,29.62,SSW,201,4.0,16.0,98,0.00,,,0.00,weatherlink.com 1.10,2013-06-28 07:10:00,
2013-06-28 03:25:00,68.6,68.0,29.62,South,183,7.0,18.0,99,0.00,,,0.00,weatherlink.com 1.10,2013-06-28 07:25:00,
2013-06-28 03:40:00,68.7,68.0,29.62,SE,134,5.0,14.0,99,0.00,,,0.00,weatherlink.com 1.10,2013-06-28 07:40:00,
2013-06-28 03:56:00,68.8,69.0,29.61,South,173,3.0,11.0,99,0.00,,,0.00,weatherlink.com 1.10,2013-06-28 07:56:00,
2013-06-28 04:10:00,68.8,69.0,29.61,SW,214,7.0,12.0,99,0.00,,,0.00,weatherlink.com 1.10,2013-06-28 08:10:00,
2013-06-28 04:25:00,68.7,68.0,29.61,SSW,211,3.0,9.0,99,0.00,,,0.00,weatherlink.com 1.10,2013-06-28 08:25:00,
2013-06-28 04:40:00,68.3,68.0,29.61,SE,139,3.0,9.0,98,0.00,,,0.00,weatherlink.com 1.10,2013-06-28 08:40:00,
2013-06-28 04:55:00,67.8,67.0,29.61,SE,139,3.0,10.0,98,0.00,,,0.00,weatherlink.com 1.10,2013-06-28 08:55:00,
2013-06-28 05:10:00,67.7,67.0,29.61,SSE,150,2.0,10.0,99,0.00,,,0.00,weatherlink.com 1.10,2013-06-28 09:10:00,
2013-06-28 05:25:00,67.9,68.0,29.61,SW,218,5.0,11.0,99,0.00,,,0.00,weatherlink.com 1.10,2013-06-28 09:25:00,
2013-06-28 05:40:00,68.1,68.0,29.61,SSE,160,3.0,10.0,99,0.00,,,0.00,weatherlink.com 1.10,2013-06-28 09:40:00,
2013-06-28 05:56:00,68.0,68.0,29.61,ESE,111,4.0,11.0,99,0.00,,,0.00,weatherlink.com 1.10,2013-06-28 09:56:00,
2013-06-28 06:12:00,67.8,68.0,29.60,South,177,9.0,11.0,99,0.00,,,0.00,weatherlink.com 1.10,2013-06-28 10:12:00,
2013-06-28 06:26:00,67.7,67.0,29.60,SE,131,7.0,15.0,98,0.00,,,0.00,weatherlink.com 1.10,2013-06-28 10:26:00,
2013-06-28 06:41:00,67.5,67.0,29.60,South,179,4.0,12.0,98,0.00,,,0.00,weatherlink.com 1.10,2013-06-28 10:41:00,
2013-06-28 06:56:00,67.4,67.0,29.59,SE,140,7.0,16.0,98,0.00,,,0.00,weatherlink.com 1.10,2013-06-28 10:56:00,
2013-06-28 07:11:00,67.7,67.0,29.59,SSE,160,10.0,13.0,99,0.00,,,0.00,weatherlink.com 1.10,2013-06-28 11:11:00,
2013-06-28 07:26:00,67.4,67.0,29.60,South,174,5.0,17.0,98,0.00,,,0.00,weatherlink.com 1.10,2013-06-28 11:26:00,
2013-06-28 07:41:00,67.3,67.0,29.60,South,180,4.0,14.0,98,0.00,,,0.00,weatherlink.com 1.10,2013-06-28 11:41:00,
2013-06-28 07:56:00,67.4,67.0,29.60,SSE,149,9.0,21.0,98,0.00,,,0.00,weatherlink.com 1.10,2013-06-28 11:56:00,
2013-06-28 08:11:00,67.7,67.0,29.59,South,177,8.0,17.0,98,0.00,,,0.00,weatherlink.com 1.10,2013-06-28 12:11:00,
2013-06-28 08:26:00,67.4,67.0,29.59,SE,139,6.0,19.0,98,0.04,,,0.04,weatherlink.com 1.10,2013-06-28 12:26:00,
2013-06-28 08:41:00,67.5,67.0,29.59,South,188,13.0,19.0,98,0.07,,,0.07,weatherlink.com 1.10,2013-06-28 12:41:00,
2013-06-28 08:56:00,68.4,68.0,29.59,SSW,198,2.0,16.0,98,0.08,,,0.08,weatherlink.com 1.10,2013-06-28 12:56:00,
2013-06-28 09:11:00,68.5,68.0,29.59,SW,219,4.0,14.0,98,0.16,,,0.16,weatherlink.com 1.10,2013-06-28 13:11:00,
2013-06-28 09:26:00,68.0,68.0,29.57,South,176,6.0,12.0,98,0.17,,,0.21,weatherlink.com 1.10,2013-06-28 13:26:00,
2013-06-28 09:41:00,69.8,70.0,29.58,SE,138,7.0,19.0,99,0.17,,,0.24,weatherlink.com 1.10,2013-06-28 13:41:00,
2013-06-28 09:56:00,68.5,68.0,29.58,South,184,10.0,17.0,98,0.16,,,0.24,weatherlink.com 1.10,2013-06-28 13:56:00,
2013-06-28 10:11:00,68.5,68.0,29.57,South,188,3.0,15.0,98,0.08,,,0.24,weatherlink.com 1.10,2013-06-28 14:11:00,
2013-06-28 10:26:00,68.2,68.0,29.58,South,173,8.0,14.0,98,0.03,,,0.24,weatherlink.com 1.10,2013-06-28 14:26:00,
2013-06-28 10:41:00,67.7,67.0,29.57,SSE,168,11.0,15.0,98,0.00,,,0.24,weatherlink.com 1.10,2013-06-28 14:41:00,
2013-06-28 10:56:00,68.3,68.0,29.57,WSW,240,14.0,18.0,99,0.00,,,0.24,weatherlink.com 1.10,2013-06-28 14:56:00,
2013-06-28 11:11:00,69.0,69.0,29.57,SSW,201,10.0,15.0,98,0.00,,,0.24,weatherlink.com 1.10,2013-06-28 15:11:00,
2013-06-28 11:26:00,68.7,68.0,29.57,SSE,160,4.0,17.0,98,0.00,,,0.24,weatherlink.com 1.10,2013-06-28 15:26:00,
2013-06-28 11:41:00,67.7,67.0,29.57,SW,215,5.0,16.0,97,0.00,,,0.24,weatherlink.com 1.10,2013-06-28 15:41:00,
2013-06-28 11:56:00,67.3,67.0,29.57,SE,136,7.0,15.0,98,0.00,,,0.24,weatherlink.com 1.10,2013-06-28 15:56:00,
2013-06-28 12:11:00,67.8,67.0,29.56,SSW,201,6.0,15.0,98,0.00,,,0.24,weatherlink.com 1.10,2013-06-28 16:11:00,
2013-06-28 12:26:00,68.1,68.0,29.56,SSW,203,7.0,15.0,98,0.00,,,0.24,weatherlink.com 1.10,2013-06-28 16:26:00,
2013-06-28 12:41:00,68.4,68.0,29.55,SSW,211,4.0,15.0,98,0.00,,,0.24,weatherlink.com 1.10,2013-06-28 16:41:00,
2013-06-28 12:56:00,69.6,69.0,29.55,SW,222,9.0,12.0,98,0.00,,,0.24,weatherlink.com 1.10,2013-06-28 16:56:00,
2013-06-28 13:11:00,70.5,70.0,29.55,SW,233,5.0,14.0,97,0.00,,,0.24,weatherlink.com 1.10,2013-06-28 17:11:00,
2013-06-28 13:26:00,68.9,68.0,29.56,SSE,158,6.0,17.0,96,0.00,,,0.24,weatherlink.com 1.10,2013-06-28 17:26:00,
2013-06-28 13:41:00,68.4,68.0,29.56,South,183,10.0,16.0,97,0.00,,,0.24,weatherlink.com 1.10,2013-06-28 17:41:00,
2013-06-28 13:56:00,68.5,68.0,29.56,SSW,204,9.0,21.0,97,0.00,,,0.24,weatherlink.com 1.10,2013-06-28 17:56:00,
2013-06-28 14:11:00,68.4,67.0,29.56,South,176,4.0,18.0,96,0.00,,,0.24,weatherlink.com 1.10,2013-06-28 18:11:00,
2013-06-28 14:26:00,67.9,67.0,29.56,SSE,149,7.0,19.0,97,0.00,,,0.24,weatherlink.com 1.10,2013-06-28 18:26:00,
2013-06-28 14:41:00,67.4,67.0,29.56,SSE,166,7.0,16.0,97,0.00,,,0.24,weatherlink.com 1.10,2013-06-28 18:41:00,
2013-06-28 14:56:00,67.2,66.0,29.55,SSE,148,7.0,18.0,97,0.00,,,0.24,weatherlink.com 1.10,2013-06-28 18:56:00,
2013-06-28 15:11:00,67.5,67.0,29.55,South,170,7.0,13.0,97,0.00,,,0.24,weatherlink.com 1.10,2013-06-28 19:11:00,
2013-06-28 15:26:00,67.9,67.0,29.55,SSW,211,6.0,12.0,98,0.00,,,0.24,weatherlink.com 1.10,2013-06-28 19:26:00,
2013-06-28 15:41:00,68.0,68.0,29.55,WSW,257,5.0,15.0,98,0.00,,,0.24,weatherlink.com 1.10,2013-06-28 19:41:00,
2013-06-28 15:56:00,67.9,67.0,29.55,SSE,160,6.0,14.0,98,0.00,,,0.24,weatherlink.com 1.10,2013-06-28 19:56:00,
2013-06-28 16:11:00,68.1,68.0,29.55,SSW,200,7.0,14.0,98,0.00,,,0.24,weatherlink.com 1.10,2013-06-28 20:11:00,
2013-06-28 16:26:00,68.5,68.0,29.55,SSE,158,2.0,10.0,98,0.00,,,0.24,weatherlink.com 1.10,2013-06-28 20:26:00,
2013-06-28 16:41:00,68.1,68.0,29.55,SSE,149,6.0,16.0,98,0.00,,,0.24,weatherlink.com 1.10,2013-06-28 20:41:00,
2013-06-28 16:56:00,68.3,68.0,29.55,SSE,159,8.0,12.0,98,0.00,,,0.24,weatherlink.com 1.10,2013-06-28 20:56:00,
2013-06-28 17:11:00,69.2,69.0,29.54,South,190,4.0,16.0,98,0.00,,,0.00,weatherlink.com 1.10,2013-06-28 21:11:00,
2013-06-28 17:26:00,69.5,69.0,29.54,SSE,163,4.0,14.0,97,0.00,,,0.00,weatherlink.com 1.10,2013-06-28 21:26:00,
2013-06-28 17:41:00,69.0,68.0,29.54,ESE,103,5.0,12.0,97,0.00,,,0.00,weatherlink.com 1.10,2013-06-28 21:41:00,
2013-06-28 17:57:00,68.3,68.0,29.54,SSW,196,4.0,11.0,97,0.00,,,0.00,weatherlink.com 1.10,2013-06-28 21:57:00,
2013-06-28 18:12:00,67.7,67.0,29.55,South,187,6.0,11.0,97,0.00,,,0.00,weatherlink.com 1.10,2013-06-28 22:12:00,
2013-06-28 18:27:00,67.4,67.0,29.55,WSW,250,5.0,10.0,97,0.00,,,0.00,weatherlink.com 1.10,2013-06-28 22:27:00,
2013-06-28 18:42:00,67.1,66.0,29.55,WSW,246,7.0,11.0,97,0.00,,,0.00,weatherlink.com 1.10,2013-06-28 22:42:00,
2013-06-28 18:57:00,67.1,67.0,29.54,SSW,200,9.0,13.0,98,0.00,,,0.00,weatherlink.com 1.10,2013-06-28 22:57:00,
2013-06-28 19:12:00,67.3,67.0,29.54,SE,138,4.0,15.0,98,0.00,,,0.00,weatherlink.com 1.10,2013-06-28 23:12:00,
2013-06-28 19:27:00,67.8,67.0,29.54,WSW,255,4.0,12.0,98,0.00,,,0.00,weatherlink.com 1.10,2013-06-28 23:27:00,
2013-06-28 19:42:00,67.7,67.0,29.55,SSW,207,5.0,11.0,98,0.00,,,0.00,weatherlink.com 1.10,2013-06-28 23:42:00,
2013-06-28 19:57:00,67.5,67.0,29.55,SSE,149,6.0,12.0,98,0.00,,,0.00,weatherlink.com 1.10,2013-06-28 23:57:00,
2013-06-28 20:12:00,67.5,67.0,29.55,South,187,4.0,13.0,98,0.00,,,0.00,weatherlink.com 1.10,2013-06-29 00:12:00,
2013-06-28 20:27:00,67.5,67.0,29.55,SSW,204,3.0,11.0,98,0.00,,,0.00,weatherlink.com 1.10,2013-06-29 00:27:00,
2013-06-28 20:42:00,67.1,67.0,29.55,SSW,193,6.0,13.0,98,0.00,,,0.00,weatherlink.com 1.10,2013-06-29 00:42:00,
2013-06-28 20:57:00,67.0,67.0,29.55,South,173,5.0,14.0,98,0.00,,,0.00,weatherlink.com 1.10,2013-06-29 00:57:00,
2013-06-28 21:12:00,67.0,67.0,29.57,SSE,151,4.0,11.0,98,0.00,,,0.00,weatherlink.com 1.10,2013-06-29 01:12:00,
2013-06-28 21:27:00,67.5,67.0,29.57,SSW,211,6.0,11.0,98,0.00,,,0.00,weatherlink.com 1.10,2013-06-29 01:27:00,
2013-06-28 21:42:00,67.4,67.0,29.57,South,190,5.0,12.0,98,0.00,,,0.00,weatherlink.com 1.10,2013-06-29 01:42:00,
2013-06-28 21:57:00,67.1,67.0,29.57,SSE,160,4.0,10.0,98,0.00,,,0.00,weatherlink.com 1.10,2013-06-29 01:57:00,
2013-06-28 22:12:00,67.2,67.0,29.56,SSW,197,5.0,12.0,98,0.00,,,0.00,weatherlink.com 1.10,2013-06-29 02:12:00,
2013-06-28 22:27:00,67.3,67.0,29.56,South,174,7.0,15.0,98,0.00,,,0.00,weatherlink.com 1.10,2013-06-29 02:27:00,
2013-06-28 22:42:00,67.1,67.0,29.57,SSW,193,6.0,14.0,98,0.00,,,0.00,weatherlink.com 1.10,2013-06-29 02:42:00,
2013-06-28 22:57:00,67.2,67.0,29.57,SSE,164,7.0,11.0,99,0.00,,,0.00,weatherlink.com 1.10,2013-06-29 02:57:00,
2013-06-28 23:12:00,67.2,67.0,29.57,SSW,198,2.0,13.0,99,0.00,,,0.00,weatherlink.com 1.10,2013-06-29 03:12:00,
2013-06-28 23:27:00,67.2,67.0,29.56,SSW,203,3.0,11.0,99,0.00,,,0.00,weatherlink.com 1.10,2013-06-29 03:27:00,
2013-06-28 23:42:00,67.4,67.0,29.57,SSW,197,3.0,12.0,99,0.00,,,0.00,weatherlink.com 1.10,2013-06-29 03:42:00,
2013-06-28 23:57:00,67.6,67.0,29.57,South,181,3.0,12.0,99,0.00,,,0.00,weatherlink.com 1.10,2013-06-29 03:57:00,